Notices

What's New in latest Release from April 7th, 2021:

- Updated Glossary, including Speed of Maximum Gust, and Total Hourly Precipitation

- Updated national and regional climate services offices contacts and prices information

- Addition of station inventory lists for 1981-2010, 1971-2000, and 1961-1990 Normals.

If you haven't already, please take our survey and provide feedback about our website: https://eccc.sondage-survey.ca/f/LanguageSelection.aspx?s=442ca660-fcf1-47c0-95a9-59707d6fd709

Hourly Data Report for April 20, 2019

MIRAMICHI RCS
NEW BRUNSWICK
Current Station Operator: ECCC - MSC

47°00'34.000" N
65°27'54.000" W
33.00 m
8100989
71744
ACQ

Download Data

Hourly Data (April 2019)
Hourly Data Report for April 20, 2019
TIME
LST
Temp Definition
°C
Dew Point Definition
°C
Rel Hum Definition
%
Precip. Amount Definition
mm

Wind Dir Definition
10's deg

Wind Spd Definition
km/h
Visibility Definition
km
Stn Press Definition
kPa
Hmdx Definition


Wind Chill Definition


Weather Definition


00:00 5.6 5.0 96 0.4 2 6   100.83     LegendNANA
01:00 5.0 4.4 96 1.5 6 11   100.90     LegendNANA
02:00 2.9 2.3 96 3.3 4 9   101.04     LegendNANA
03:00 2.9 2.3 96 1.7 6 7   101.11     LegendNANA
04:00 3.0 2.4 96 0.8 7 9   101.04     LegendNANA
05:00 2.9 2.4 97 0.9 8 10   101.04     LegendNANA
06:00 2.9 2.6 98 1.0 8 8   101.09     LegendNANA
07:00 3.2 2.8 97 2.0 6 12   101.08     LegendNANA
08:00 3.7 3.2 96 3.5 5 14   101.20     LegendNANA
09:00 4.1 3.5 96 4.2 6 18   101.25     LegendNANA
10:00 4.3 3.7 96 3.9 6 20   101.28     LegendNANA
11:00 4.7 4.0 95 0.3 7 17   101.41     LegendNANA
12:00 4.6 3.8 95 2.6 6 25   101.44     LegendNANA
13:00 5.0 4.2 95 1.5 6 19   101.56     LegendNANA
14:00 4.9 3.7 92 0.0 6 24   101.61     LegendNANA
15:00 4.2 3.5 95 0.0 7 23   101.63     LegendNANA
16:00 4.1 3.4 95 0.0 7 18   101.67     LegendNANA
17:00 3.9 3.3 96 0.2 6 17   101.76     LegendNANA
18:00 3.4 2.8 96 0.3 8 16   101.83     LegendNANA
19:00 3.1 2.6 97 0.0 8 13   101.92     LegendNANA
20:00 2.7 2.3 97 0.0 6 13   101.89     LegendNANA
21:00 2.4 2.0 97 0.2 5 10   101.94     LegendNANA
22:00 2.4 1.9 97 1.0 8 17   101.84     LegendNANA
23:00 1.9 1.5 97 0.9 6 11   101.79     LegendNANA

Notes on Data Quality.

Legend

  • E = Estimated
  • M = Missing
  • NA = Not Available*
  • [empty] = Indicates an unobserved value
Date modified: